[[{"header":{"parameterUnit":"m.s-1","parameterCategory":2,"la1":30.2992,"la2":30.254,"lo1":-89.0895,"lo2":-89.0443,"dy":0.0025,"dx":0.0025,"nx":19,"ny":19,"refTime":"2026-05-03T09:00:00:Z","depth":"0","parameterNumber":2,"parameterNumberName":"U-component_of_CURRENTS"},"data":[0,0,0,0.2932,0.2933,0.2965,0.2965,0.3026,0.3027,0,0,0,0,0,0,0,0,0,0,0,0.2915,0.2915,0.2932,0.2933,0.2965,0.2965,0.3026,0.3027,0,0,0,0,0,0,0,0,0,0,0,0.2915,0.2915,0.2915,0.2933,0.2965,0.2965,0.3026,0.2995,0,0,0,0,0,0,0,0,0,0,0.2961,0.2944,0.2915,0.2915,0.2934,0.2965,0.2965,0.2993,0.2997,0.3021,0,0.3027,0,0.3037,0.3032,0.3033,0,0,0,0.2925,0.2941,0.2953,0.2915,0.2934,0.2965,0.2948,0.2995,0.2999,0.3026,0.3028,0.3031,0.3038,0.3033,0.3033,0.3151,0.3151,0,0,0.2923,0.2918,0.295,0.2956,0.2946,0.2947,0.2949,0.2997,0.3002,0.3028,0.3032,0.3039,0.3033,0.3034,0.315,0.3151,0,0,0,0.2924,0.2916,0.2927,0.2953,0.2962,0.2948,0.2951,0.2999,0.3004,0.3033,0.3039,0.3034,0.3035,0.3149,0.315,0.32,0,0,0,0.2922,0.2918,0.2926,0.2923,0.2961,0.2979,0.2951,0.3,0.3006,0.3039,0.3034,0.3036,0.3149,0.315,0.3197,0.3193,0,0,0,0.2913,0.2917,0.2922,0.2923,0.2941,0.2978,0.2985,0.3001,0.3011,0.3033,0.3036,0.3148,0.315,0.3194,0.3189,0.3258,0,0,0,0.2904,0.2913,0.2922,0.2941,0.2941,0.2984,0.2984,0.3024,0.3046,0.3034,0.3149,0.315,0.3193,0.3187,0.3255,0.3189,0.3197,0,0,0.2909,0.2913,0.2927,0.2936,0.2972,0.2979,0.3042,0.3074,0.308,0.3131,0.3134,0.3198,0.3189,0.3257,0.3283,0.3288,0,0,0,0.2925,0.2927,0.2944,0.2966,0.3002,0.3048,0.3082,0.3115,0.3174,0.3102,0.3217,0.321,0.3252,0.3206,0.3211,0.3071,0.3158,0.3158,0.3158,0.29,0.2926,0.2944,0.2984,0.3027,0.3106,0.3159,0.3211,0.3218,0.3263,0.3266,0.3367,0.332,0.3323,0.3181,0.3297,0.3297,0.3298,0.3298,0.2882,0.288,0.2935,0.2958,0.3032,0.3095,0.3226,0.3267,0.337,0.3338,0.3378,0.3278,0.333,0.3177,0.3301,0.3301,0.33,0.33,0.33,0.2832,0.2835,0.2856,0.2904,0.2982,0.3093,0.3208,0.3314,0.3391,0.3442,0.3414,0.3411,0.3263,0.3478,0.3479,0.3479,0.3479,0.348,0.348,0.2762,0.2787,0.279,0.2859,0.2895,0.3007,0.3204,0.3302,0.342,0.345,0.345,0.3275,0.3423,0.34,0.3485,0.3484,0.3483,0.3483,0.3482,0.2693,0.271,0.2708,0.2728,0.2818,0.2862,0.3083,0.3261,0.3395,0.3429,0.3291,0.3469,0.3447,0.3441,0.342,0.3505,0.3505,0.3505,0.3505,0.2637,0.2651,0.2618,0.2627,0.2681,0.2788,0.2843,0.3024,0.3173,0.3176,0.3223,0.3138,0.3143,0.3098,0.31,0.307,0.3064,0.3064,0.3063,0.2593,0.2594,0.2537,0.2549,0.2594,0.2668,0.264,0.2663,0.2876,0.3033,0.3046,0.3065,0.2927,0.2946,0.2864,0.2878,0.2824,0,0]},{"header":{"parameterUnit":"m.s-1","parameterCategory":2,"la1":30.2992,"la2":30.254,"lo1":-89.0895,"lo2":-89.0443,"dy":0.0025,"dx":0.0025,"nx":19,"ny":19,"refTime":"2026-05-03T09:00:00:Z","depth":"0","parameterNumber":3,"parameterNumberName":"V-component_of_CURRENTS"},"data":[0,0,0,0.0403,0.0403,0.039,0.039,0.0363,0.0363,0,0,0,0,0,0,0,0,0,0,0,0.0408,0.0408,0.0403,0.0403,0.039,0.039,0.0363,0.0363,0,0,0,0,0,0,0,0,0,0,0,0.0408,0.0408,0.0408,0.0403,0.039,0.039,0.0363,0.0375,0,0,0,0,0,0,0,0,0,0,0.0388,0.0394,0.0408,0.0408,0.0403,0.039,0.039,0.0375,0.0374,0.0367,0,0.0368,0,0.0366,0.0361,0.0361,0,0,0,0.0399,0.0395,0.0393,0.0408,0.0403,0.039,0.0395,0.0375,0.0373,0.0365,0.0367,0.0366,0.0365,0.0361,0.0361,0.0399,0.0399,0,0,0.04,0.0402,0.0394,0.0393,0.0402,0.0395,0.0394,0.0374,0.0372,0.0367,0.0366,0.0365,0.0361,0.0361,0.0398,0.0399,0,0,0,0.0404,0.0403,0.0402,0.0394,0.0393,0.0395,0.0394,0.0373,0.0373,0.0365,0.0364,0.0361,0.036,0.0397,0.0398,0.0493,0,0,0,0.0405,0.0405,0.0402,0.0403,0.0393,0.0384,0.0394,0.0375,0.0372,0.0365,0.0361,0.036,0.0397,0.0398,0.0489,0.0567,0,0,0,0.0408,0.0405,0.0406,0.0403,0.0399,0.0384,0.0383,0.0374,0.0372,0.0361,0.036,0.0396,0.0398,0.0485,0.0559,0.0617,0,0,0,0.0408,0.0434,0.0406,0.044,0.0399,0.0436,0.0383,0.0397,0.0395,0.0361,0.0397,0.0398,0.0484,0.0554,0.0612,0.0714,0.0744,0,0,0.0449,0.0439,0.0464,0.0438,0.0498,0.0438,0.0497,0.0461,0.0413,0.04,0.0401,0.049,0.0559,0.0616,0.0797,0.0825,0,0,0,0.0483,0.0503,0.0517,0.0539,0.0544,0.0566,0.0522,0.051,0.0497,0.0418,0.0493,0.0534,0.0567,0.0618,0.064,0.0545,0.0405,0.0405,0.0405,0.0542,0.0556,0.0614,0.0634,0.0654,0.0653,0.0668,0.0639,0.0571,0.058,0.0612,0.0726,0.0782,0.08,0.0701,0.0592,0.0593,0.0593,0.0593,0.0632,0.0675,0.0694,0.0754,0.0768,0.0809,0.0809,0.0773,0.0793,0.071,0.0735,0.0717,0.083,0.0715,0.0599,0.0598,0.0597,0.0597,0.0596,0.068,0.0708,0.0736,0.0826,0.0905,0.0923,0.1034,0.0986,0.0907,0.0934,0.0964,0.0963,0.0861,0.0932,0.0933,0.0933,0.0934,0.0934,0.0935,0.0718,0.0755,0.0832,0.0919,0.0995,0.1103,0.1171,0.1204,0.1184,0.111,0.1109,0.0907,0.083,0.0816,0.0944,0.0943,0.0941,0.094,0.094,0.0793,0.0803,0.0926,0.1004,0.1191,0.1376,0.142,0.1517,0.1491,0.1495,0.1188,0.1189,0.1173,0.1155,0.1149,0.1356,0.1356,0.1356,0.1356,0.0837,0.0853,0.1018,0.1164,0.1349,0.1505,0.1764,0.1804,0.1589,0.1442,0.1303,0.1222,0.1209,0.1188,0.1169,0.1159,0.1364,0.1363,0.1363,0.0897,0.0941,0.1063,0.1203,0.1421,0.1667,0.1939,0.2021,0.1643,0.1346,0.1153,0.1153,0.1008,0.0995,0.0933,0.0915,0.0887,0,0]}],[{"header":{"parameterUnit":"m.s-1","parameterCategory":2,"la1":30.2992,"la2":30.254,"lo1":-89.0895,"lo2":-89.0443,"dy":0.0025,"dx":0.0025,"nx":19,"ny":19,"refTime":"2026-05-03T09:00:00:Z","depth":"2","parameterNumber":2,"parameterNumberName":"U-component_of_CURRENTS"},"data":[0,0,0,0.2622,0.2624,0.2672,0.2672,0.2738,0.2738,0,0,0,0,0,0,0,0,0,0,0,0.2603,0.2603,0.2622,0.2624,0.2672,0.2672,0.2738,0.2738,0,0,0,0,0,0,0,0,0,0,0,0.2603,0.2603,0.2604,0.2624,0.2672,0.2672,0.2737,0.2698,0,0,0,0,0,0,0,0,0,0,0.265,0.2634,0.2603,0.2604,0.2624,0.2672,0.2672,0.2696,0.2701,0.2719,0,0.2731,0,0.2741,0.2744,0.2744,0,0,0,0.2617,0.263,0.2646,0.2604,0.2625,0.2672,0.2648,0.2699,0.2704,0.2725,0.2732,0.2735,0.2743,0.2744,0.2744,0.285,0.2851,0,0,0.2614,0.2609,0.2642,0.2649,0.2644,0.2647,0.265,0.2702,0.2708,0.2732,0.2736,0.2744,0.2745,0.2745,0.285,0.285,0,0,0,0.2611,0.2607,0.2621,0.2646,0.2658,0.2648,0.2652,0.2706,0.2712,0.2737,0.2744,0.2745,0.2746,0.2849,0.285,0.2903,0,0,0,0.2609,0.2606,0.262,0.2617,0.2657,0.2682,0.2655,0.2708,0.2714,0.2744,0.2745,0.2747,0.2848,0.2849,0.29,0.2892,0,0,0,0.26,0.2605,0.2613,0.2616,0.2641,0.2682,0.269,0.2709,0.2719,0.2744,0.2747,0.2848,0.2849,0.2898,0.2889,0.2961,0,0,0,0.2588,0.2601,0.2613,0.2634,0.2641,0.2683,0.269,0.2732,0.2757,0.2745,0.2848,0.285,0.2897,0.2887,0.2958,0.2858,0.2863,0,0,0.2595,0.2601,0.2614,0.2626,0.2661,0.2676,0.2737,0.2777,0.2784,0.2829,0.2831,0.2901,0.2889,0.296,0.2939,0.2941,0,0,0,0.2611,0.2616,0.2632,0.2655,0.2691,0.2739,0.2779,0.2812,0.2874,0.2806,0.2915,0.2905,0.2949,0.2883,0.2886,0.2856,0.2856,0.2856,0.2856,0.2591,0.2615,0.2634,0.2672,0.2714,0.2793,0.2845,0.2897,0.291,0.2956,0.296,0.306,0.2991,0.2991,0.2989,0.2989,0.299,0.299,0.299,0.2577,0.2577,0.2628,0.2654,0.2725,0.2788,0.291,0.2953,0.3052,0.3025,0.3067,0.2955,0.2997,0.2994,0.2994,0.2993,0.2992,0.2992,0.2992,0.2534,0.2537,0.2563,0.2613,0.2691,0.2796,0.2899,0.3002,0.3078,0.3126,0.3084,0.3081,0.3086,0.3172,0.3173,0.3173,0.3173,0.3174,0.3174,0.247,0.2498,0.2506,0.2578,0.2616,0.2722,0.2904,0.2985,0.3089,0.3115,0.3115,0.3121,0.3115,0.3097,0.3178,0.3178,0.3177,0.3177,0.3176,0.2407,0.2427,0.2432,0.2457,0.2541,0.2563,0.2772,0.2909,0.3039,0.3056,0.3122,0.3122,0.3094,0.309,0.3071,0.3142,0.3142,0.3142,0.3142,0.2356,0.2371,0.2349,0.2356,0.2399,0.2479,0.249,0.2607,0.2811,0.2867,0.2879,0.2794,0.2802,0.2753,0.2756,0.2729,0.271,0.2709,0.2708,0.2314,0.2317,0.227,0.228,0.2308,0.2339,0.2264,0.2198,0.2371,0.2687,0.2761,0.3121,0.3024,0.3026,0.2972,0.2969,0.2933,0,0]},{"header":{"parameterUnit":"m.s-1","parameterCategory":2,"la1":30.2992,"la2":30.254,"lo1":-89.0895,"lo2":-89.0443,"dy":0.0025,"dx":0.0025,"nx":19,"ny":19,"refTime":"2026-05-03T09:00:00:Z","depth":"2","parameterNumber":3,"parameterNumberName":"V-component_of_CURRENTS"},"data":[0,0,0,0.027,0.027,0.0263,0.0263,0.0244,0.0244,0,0,0,0,0,0,0,0,0,0,0,0.0273,0.0273,0.027,0.027,0.0263,0.0263,0.0244,0.0244,0,0,0,0,0,0,0,0,0,0,0,0.0273,0.0273,0.0273,0.027,0.0263,0.0263,0.0244,0.0251,0,0,0,0,0,0,0,0,0,0,0.0259,0.0263,0.0273,0.0273,0.027,0.0263,0.0263,0.0252,0.0251,0.0245,0,0.0246,0,0.0245,0.0243,0.0243,0,0,0,0.0268,0.0264,0.0263,0.0273,0.027,0.0263,0.0265,0.0251,0.025,0.0244,0.0246,0.0245,0.0245,0.0242,0.0242,0.0274,0.0275,0,0,0.0268,0.0269,0.0264,0.0263,0.0271,0.0266,0.0265,0.0251,0.025,0.0246,0.0245,0.0244,0.0242,0.0242,0.0274,0.0274,0,0,0,0.027,0.027,0.027,0.0264,0.0263,0.0265,0.0265,0.025,0.0251,0.0245,0.0244,0.0242,0.0242,0.0273,0.0274,0.0362,0,0,0,0.0271,0.0271,0.027,0.027,0.0264,0.0258,0.0265,0.0252,0.025,0.0244,0.0242,0.0242,0.0273,0.0274,0.0359,0.0419,0,0,0,0.0273,0.0271,0.0272,0.027,0.0268,0.0258,0.0258,0.0252,0.025,0.0243,0.0242,0.0272,0.0273,0.0355,0.0413,0.0469,0,0,0,0.0272,0.0297,0.0272,0.0304,0.0269,0.0303,0.0258,0.0272,0.0272,0.0242,0.0273,0.0274,0.0354,0.0409,0.0465,0.053,0.0554,0,0,0.0309,0.0301,0.0323,0.0302,0.0357,0.0304,0.0358,0.0329,0.0286,0.0275,0.0276,0.036,0.0412,0.0468,0.0597,0.0619,0,0,0,0.034,0.0359,0.0372,0.0393,0.0399,0.0419,0.0382,0.0371,0.0361,0.0291,0.0359,0.039,0.0422,0.0452,0.047,0.028,0.0279,0.0279,0.0279,0.0393,0.0407,0.046,0.0479,0.0497,0.0497,0.0511,0.0484,0.0425,0.0433,0.046,0.0564,0.0597,0.0611,0.0445,0.0446,0.0446,0.0446,0.0447,0.0475,0.0515,0.0533,0.0588,0.0602,0.0639,0.0637,0.0606,0.0618,0.0544,0.057,0.0542,0.0636,0.0454,0.0452,0.0451,0.0451,0.045,0.045,0.052,0.0544,0.0572,0.0655,0.0727,0.0744,0.084,0.0794,0.0721,0.0743,0.0757,0.0755,0.0629,0.0748,0.0749,0.0749,0.075,0.075,0.0751,0.0554,0.0588,0.0659,0.0739,0.0809,0.0907,0.0961,0.0981,0.095,0.0879,0.0879,0.0666,0.0656,0.0646,0.0759,0.0757,0.0756,0.0755,0.0755,0.062,0.0631,0.0743,0.0815,0.0986,0.1141,0.1177,0.1234,0.1207,0.1197,0.095,0.0942,0.0924,0.0908,0.0904,0.1077,0.1077,0.1077,0.1077,0.0658,0.0674,0.0825,0.0958,0.1124,0.1253,0.1447,0.1438,0.1297,0.1171,0.1167,0.1104,0.109,0.1075,0.1056,0.1051,0.1263,0.1263,0.1264,0.0709,0.0751,0.0862,0.0992,0.1187,0.1386,0.1576,0.1555,0.1314,0.1267,0.1157,0.1098,0.099,0.0974,0.0931,0.0908,0.0893,0,0]}],[{"header":{"parameterUnit":"m.s-1","parameterCategory":2,"la1":30.2992,"la2":30.254,"lo1":-89.0895,"lo2":-89.0443,"dy":0.0025,"dx":0.0025,"nx":19,"ny":19,"refTime":"2026-05-03T09:00:00:Z","depth":"4","parameterNumber":2,"parameterNumberName":"U-component_of_CURRENTS"},"data":[0,0,0,0.1802,0.1805,0.1947,0.1947,0.2062,0.2063,0,0,0,0,0,0,0,0,0,0,0,0.176,0.1762,0.1802,0.1805,0.1947,0.1947,0.2062,0.2063,0,0,0,0,0,0,0,0,0,0,0,0.176,0.1761,0.1763,0.1806,0.1946,0.1947,0.2062,0.1971,0,0,0,0,0,0,0,0,0,0,0.1842,0.1819,0.1761,0.1763,0.1807,0.1946,0.1947,0.1967,0.1976,0.1979,0,0.2015,0,0.2038,0.2069,0.2069,0,0,0,0.1804,0.1812,0.1844,0.1763,0.1808,0.1946,0.1882,0.1973,0.1983,0.1991,0.2017,0.2021,0.204,0.207,0.207,0.2181,0.2182,0,0,0.1796,0.1789,0.1837,0.1851,0.1862,0.1878,0.1887,0.198,0.2,0.2017,0.2024,0.2042,0.207,0.2071,0.2181,0.2181,0,0,0,0.1775,0.1783,0.1815,0.1845,0.1875,0.1882,0.1892,0.1996,0.2006,0.2026,0.2044,0.2071,0.2072,0.218,0.2181,0.2241,0,0,0,0.177,0.1771,0.1811,0.1808,0.1874,0.1948,0.1906,0.1999,0.2011,0.2043,0.2071,0.2073,0.218,0.2181,0.2238,0.2232,0,0,0,0.1751,0.1769,0.1789,0.1808,0.1868,0.1947,0.1963,0.2003,0.2021,0.2069,0.2073,0.2179,0.218,0.2235,0.2229,0.2295,0,0,0,0.1731,0.1759,0.1789,0.1831,0.1867,0.1937,0.1963,0.2038,0.2084,0.2071,0.218,0.2181,0.2235,0.2227,0.2292,0.1991,0,0,0,0.1744,0.1761,0.1783,0.1812,0.1869,0.1916,0.1998,0.2079,0.2099,0.2143,0.2146,0.2239,0.2229,0.2294,0.2065,0,0,0,0,0.1771,0.1788,0.1811,0.186,0.1914,0.1991,0.2066,0.2109,0.2198,0.2133,0.2247,0.2238,0.2278,0.2094,0.2187,0.2187,0.2187,0.2186,0.2186,0.1759,0.1791,0.1829,0.1885,0.1945,0.2055,0.2124,0.2196,0.2222,0.228,0.2295,0.2389,0.2197,0.2319,0.2319,0.232,0.232,0.232,0.232,0.1751,0.1761,0.1836,0.1889,0.1981,0.2069,0.2197,0.2256,0.2366,0.2352,0.2391,0.2177,0.2326,0.2325,0.2324,0.2323,0.2323,0.2322,0.2322,0.1709,0.1718,0.1779,0.1867,0.1978,0.21,0.2198,0.2316,0.2403,0.2452,0.2289,0.2432,0.2419,0.2504,0.2505,0.2505,0.2505,0.2505,0.2506,0.163,0.1687,0.1734,0.1846,0.1912,0.2033,0.2219,0.2281,0.2406,0.2303,0.2486,0.2451,0.2445,0.243,0.251,0.2509,0.2509,0.2508,0.2508,0.1553,0.1605,0.165,0.1712,0.1835,0.189,0.2104,0.2159,0.222,0.2195,0.2229,0.2242,0.2191,0.2192,0.2166,0.2172,0.2168,0.2164,0,0.1495,0.1524,0.1567,0.1609,0.1648,0.1785,0.1778,0.1887,0.2,0.1931,0.2232,0.2269,0.2276,0.2217,0.2212,0.2179,0,0,0,0.1446,0.1469,0.1462,0.1518,0.1537,0.1599,0.1759,0.173,0.1982,0.1943,0.2074,0.2098,0.2341,0.2523,0.2476,0.2469,0.2443,0,0]},{"header":{"parameterUnit":"m.s-1","parameterCategory":2,"la1":30.2992,"la2":30.254,"lo1":-89.0895,"lo2":-89.0443,"dy":0.0025,"dx":0.0025,"nx":19,"ny":19,"refTime":"2026-05-03T09:00:00:Z","depth":"4","parameterNumber":3,"parameterNumberName":"V-component_of_CURRENTS"},"data":[0,0,0,0.0194,0.0194,0.0203,0.0203,0.0203,0.0203,0,0,0,0,0,0,0,0,0,0,0,0.0193,0.0193,0.0194,0.0194,0.0203,0.0203,0.0203,0.0203,0,0,0,0,0,0,0,0,0,0,0,0.0193,0.0193,0.0193,0.0194,0.0203,0.0203,0.0203,0.0199,0,0,0,0,0,0,0,0,0,0,0.0192,0.0193,0.0193,0.0193,0.0194,0.0202,0.0203,0.0199,0.0199,0.0196,0,0.0199,0,0.02,0.0202,0.0202,0,0,0,0.0194,0.0192,0.0194,0.0193,0.0194,0.0202,0.0199,0.0199,0.0199,0.0196,0.0199,0.0199,0.02,0.0202,0.0202,0.0231,0.0231,0,0,0.0194,0.0194,0.0194,0.0195,0.0199,0.0198,0.0199,0.0199,0.02,0.0199,0.0199,0.02,0.0202,0.0202,0.023,0.0231,0,0,0,0.0192,0.0193,0.0196,0.0195,0.0197,0.0199,0.0199,0.0201,0.0201,0.0199,0.02,0.0202,0.0202,0.023,0.023,0.0301,0,0,0,0.0192,0.0193,0.0195,0.0195,0.0197,0.02,0.02,0.0201,0.0201,0.02,0.0202,0.0202,0.023,0.023,0.0298,0.0341,0,0,0,0.0192,0.0193,0.0194,0.0195,0.0199,0.02,0.0201,0.0201,0.0202,0.0202,0.0202,0.0229,0.023,0.0296,0.0336,0.0377,0,0,0,0.019,0.0209,0.0194,0.0221,0.0199,0.023,0.0201,0.0219,0.0224,0.0202,0.023,0.023,0.0295,0.0333,0.0374,0.0372,0,0,0,0.0217,0.0212,0.0231,0.0218,0.0264,0.0229,0.0275,0.0263,0.0233,0.0228,0.0228,0.0299,0.0336,0.0376,0.0418,0,0,0,0,0.0242,0.0257,0.0269,0.0289,0.0298,0.032,0.03,0.0293,0.0292,0.0239,0.0295,0.0316,0.034,0.0329,0.0234,0.0234,0.0234,0.0234,0.0234,0.0279,0.0292,0.0335,0.0355,0.0374,0.0382,0.0396,0.0379,0.034,0.0347,0.0371,0.0447,0.0438,0.0359,0.036,0.036,0.036,0.0361,0.0361,0.0337,0.0367,0.039,0.0438,0.0457,0.0493,0.0494,0.0474,0.0483,0.0432,0.045,0.04,0.0368,0.0366,0.0365,0.0365,0.0364,0.0364,0.0363,0.0366,0.0384,0.0415,0.0488,0.0554,0.0576,0.0648,0.0618,0.0562,0.0578,0.0558,0.0499,0.0497,0.0586,0.0586,0.0587,0.0587,0.0587,0.0587,0.0381,0.0414,0.0475,0.0549,0.0613,0.0694,0.074,0.0745,0.0694,0.065,0.0604,0.0523,0.0515,0.0509,0.0593,0.0592,0.0591,0.0591,0.059,0.0415,0.0433,0.0525,0.059,0.0736,0.0795,0.0844,0.0836,0.0841,0.0794,0.0679,0.0673,0.065,0.064,0.0637,0.0762,0.0762,0.0762,0,0.0433,0.0449,0.0573,0.0684,0.0802,0.0857,0.0903,0.0903,0.0818,0.0799,0.081,0.0681,0.0675,0.0647,0.0638,0.0635,0,0,0,0.0459,0.0496,0.0581,0.0693,0.0829,0.0881,0.0916,0.09,0.0831,0.0831,0.0771,0.0769,0.0693,0.0611,0.056,0.0551,0.0539,0,0]}]]